Wind_Speed
23 22 22 21 20 18 18 20 24 28 26 26 26 22 22 21 20 16 14 13 10 7 5 5 4 5 8 11 11 12 16 3 8 5 12 10 5 9 7 6 7 7 8 8 9
25 25 25 24 23 21 21 22 24 24 25 26 26 24 22 22 21 19 17 15 14 11 8 6 6 6 9 10 12 14 12 10 21 12 3 11 5 11 9 7 7 6 6 7 8
29 29 27 27 26 25 24 25 24 24 25 26 26 24 22 21 24 21 20 18 17 14 11 8 7 7 9 10 13 13 14 20 14 12 9 7 6 9 9 9 6 5 5 6 6
34 31 30 28 26 26 26 27 27 26 24 26 26 25 24 22 27 23 22 21 18 18 15 11 9 9 10 10 11 14 12 15 13 10 9 3 9 8 7 4 4 4 3 4 3
34 34 32 29 28 26 25 27 26 26 27 28 27 26 24 25 25 23 23 23 21 19 18 15 11 10 11 13 12 13 14 14 11 8 8 8 6 3 7 9 7 2 2 2 3
33 33 32 30 27 26 24 26 25 26 26 27 29 29 27 30 25 24 23 23 24 22 20 19 14 12 12 15 14 12 15 15 13 10 10 5 7 7 6 10 10 4 2 2 1
30 30 30 28 27 25 24 23 24 24 26 26 27 29 31 29 28 25 24 24 24 24 23 21 19 14 12 11 12 8 12 15 12 8 10 4 11 4 7 10 12 10 4 3 3
32 30 28 26 25 24 24 22 22 24 26 25 26 27 31 28 28 26 26 26 24 24 24 22 20 19 13 15 13 11 11 13 11 10 7 4 8 22 11 9 12 15 14 10 11
35 32 29 27 26 25 23 23 22 23 24 24 26 27 30 28 27 26 28 28 26 25 25 24 23 21 20 14 15 14 13 10 14 15 9 5 9 15 20 13 15 15 13 14 18
37 35 31 28 25 26 25 24 24 23 23 24 26 26 28 28 24 27 28 28 29 28 26 26 26 24 23 21 18 16 15 15 14 22 12 10 11 19 22 14 17 17 14 14 18
39 37 34 29 26 27 27 26 25 26 23 24 24 28 26 27 26 27 28 28 30 30 27 28 28 27 26 24 21 17 20 19 19 18 22 15 14 18 20 12 17 15 17 15 17
41 40 37 32 28 29 29 28 27 27 25 24 25 27 25 26 25 26 27 29 30 30 31 29 28 29 30 29 29 29 27 19 21 19 24 17 18 17 20 20 16 17 20 19 18
44 42 40 35 29 29 31 30 28 27 27 26 24 22 22 23 23 23 26 29 30 30 32 31 21 33 33 30 27 26 27 26 19 28 33 23 22 23 23 20 21 22 22 24 24
47 43 41 37 32 30 30 30 28 26 26 27 25 24 21 22 23 24 22 26 27 28 31 34 31 35 32 31 29 27 26 30 22 27 24 20 23 25 27 21 24 20 22 19 24
49 46 42 39 35 32 30 28 27 25 18 31 28 23 23 21 23 22 21 21 26 29 31 24 37 37 32 31 33 27 27 29 33 31 28 22 26 20 18 30 20 17 22 24 24
51 48 44 41 38 33 30 29 28 25 23 30 27 26 23 22 22 23 21 20 25 28 28 29 35 33 33 34 36 31 32 30 26 29 33 28 31 26 21 22 31 24 20 20 21
52 49 46 42 40 35 32 30 29 28 32 28 24 26 23 22 22 22 21 20 22 24 22 27 31 29 31 34 34 32 30 27 24 26 31 25 31 29 28 26 26 25 24 20 19
52 50 47 43 41 38 35 33 32 28 25 34 29 24 21 20 20 21 21 20 19 19 10 14 16 24 32 29 24 30 28 24 19 18 20 22 27 24 23 31 40 26 23 25 24
53 50 47 44 43 40 37 36 30 28 30 31 27 24 20 19 17 19 18 17 19 20 19 14 15 26 28 26 25 17 22 22 24 25 25 18 11 22 21 23 23 16 17 23 26
53 52 50 45 44 42 41 36 39 40 33 28 24 22 17 20 19 18 17 19 19 20 23 17 11 21 24 23 26 28 17 18 21 20 21 19 19 18 20 15 10 11 14 19 31
53 52 52 47 45 44 40 36 39 35 35 34 29 25 20 18 16 16 15 21 20 19 19 20 21 14 16 12 10 16 28 30 27 22 18 16 14 21 25 16 17 18 13 22 38
52 50 50 47 45 44 41 39 39 35 36 37 34 34 30 25 18 15 20 20 18 17 14 17 17 16 9 14 24 27 20 13 17 15 21 24 28 24 17 17 24 27 21 29 26
52 52 48 47 46 43 42 44 38 38 36 36 36 35 33 28 20 22 29 16 16 17 19 18 14 12 13 16 17 19 17 20 24 26 27 20 16 14 12 14 19 22 26 31 28
51 54 49 47 46 48 45 41 40 38 39 38 38 34 31 31 25 22 25 19 18 17 17 18 18 18 17 19 20 10 8 10 17 18 13 14 15 12 14 28 30 33 23 23 26
55 52 45 45 46 44 43 42 41 41 38 36 36 34 30 28 22 18 22 20 19 19 21 20 20 15 23 12 14 16 17 17 15 14 16 17 18 18 22 27 22 27 22 24 26
53 50 49 47 46 44 43 43 40 39 39 38 36 35 35 31 20 21 26 22 23 23 25 23 20 24 21 25 28 32 32 27 19 18 19 17 14 31 29 31 34 26 24 27 30
53 51 46 47 42 42 43 41 40 40 38 38 38 37 36 33 34 26 29 28 27 24 24 22 21 19 17 11 18 19 20 20 24 25 28 28 31 28 26 29 31 32 31 31 30
Wind_Direction
248 245 245 245 241 242 241 241 240 242 246 248 250 248 242 243 240 242 234 225 222 227 247 256 209 185 176 164 167 162 119 182 220 221 254 285 297 10 28 37 40 64 65 62 63
249 248 245 247 246 243 243 245 245 243 244 245 243 246 240 240 238 235 235 228 222 222 235 256 235 203 194 173 162 164 116 231 211 206 181 282 279 333 9 8 28 32 56 49 56
249 248 247 244 246 245 245 246 245 247 243 242 245 243 242 236 238 231 230 227 225 224 222 242 246 219 208 186 169 165 130 246 233 225 221 252 234 329 14 359 12 13 32 29 54
250 249 249 247 247 247 247 246 248 246 246 245 243 244 243 236 239 234 230 227 226 224 222 230 246 229 213 210 180 179 190 198 223 220 199 195 240 334 346 359 354 339 10 35 30
248 250 251 252 251 249 247 248 246 244 243 243 244 242 241 241 237 232 228 227 224 223 223 226 239 242 218 213 205 181 184 206 221 215 202 205 240 319 351 341 345 324 317 33 2
248 245 248 251 251 252 250 249 245 246 244 242 241 241 240 240 235 232 227 223 223 223 224 225 233 241 234 218 215 198 191 203 214 201 224 199 226 348 359 347 347 353 314 285 270
247 245 244 245 248 248 246 245 247 241 243 241 240 239 240 238 235 232 228 225 224 223 224 223 224 236 235 231 217 211 189 199 219 205 226 217 250 26 321 355 349 345 325 300 295
244 243 242 243 244 245 246 245 242 239 240 239 238 236 239 235 233 230 230 225 224 223 222 224 223 231 236 232 227 223 214 200 230 222 220 248 224 284 316 352 349 341 335 330 346
243 242 240 242 245 246 245 246 244 238 238 238 238 236 236 235 230 228 228 227 223 223 223 221 222 222 232 234 226 222 233 206 222 247 221 201 250 212 283 319 334 332 337 336 337
242 241 237 235 240 247 246 242 243 238 235 236 236 236 235 234 230 227 227 226 224 224 222 222 220 224 226 227 227 222 224 229 212 264 218 199 166 240 268 302 316 318 332 333 331
238 238 235 237 238 242 246 246 242 240 235 237 234 236 232 233 232 229 228 226 226 223 223 223 220 222 227 227 210 215 222 234 228 227 257 214 212 241 267 283 304 295 317 318 326
234 233 233 233 235 240 242 240 240 239 235 235 233 232 232 234 235 231 229 227 227 223 224 225 223 223 225 223 222 224 219 214 224 242 235 237 230 234 257 279 285 284 306 303 310
232 229 228 229 232 236 237 237 236 236 233 233 233 232 232 234 236 234 229 225 225 224 224 224 229 227 229 232 232 232 225 227 210 252 257 250 242 242 234 245 265 282 286 295 295
230 228 226 225 228 232 232 232 231 233 234 232 232 231 230 231 231 233 232 225 224 225 228 224 225 230 231 233 233 234 236 233 227 234 251 265 254 246 261 270 256 258 274 285 286
227 227 225 222 222 228 229 228 227 225 221 234 227 229 229 232 237 233 233 228 223 224 229 235 231 234 236 237 238 235 229 236 235 239 248 237 256 246 245 279 271 255 270 283 289
224 224 223 220 220 223 226 225 223 220 214 234 226 226 229 233 239 242 242 233 226 227 223 219 233 235 233 236 239 240 244 248 250 250 251 251 242 254 265 260 285 284 250 276 272
221 221 220 217 218 218 222 222 217 214 221 232 226 226 227 232 235 240 244 244 239 237 236 237 247 238 237 239 240 242 247 253 257 251 259 256 255 259 256 252 257 271 275 262 254
219 218 218 216 214 214 216 219 215 211 216 220 217 216 223 233 231 236 239 239 233 232 196 239 261 256 240 239 248 243 245 238 244 262 276 277 267 269 258 250 255 263 271 256 255
214 215 215 213 212 211 212 216 210 205 206 215 214 217 216 214 216 228 230 230 234 228 197 226 223 229 244 232 233 249 247 244 248 239 243 248 259 259 278 282 282 279 282 260 266
214 209 212 209 209 208 211 210 207 212 216 213 208 212 208 207 218 223 221 220 213 232 213 205 205 261 256 241 235 229 231 240 251 259 251 250 266 277 268 274 267 278 262 282 270
210 208 208 208 207 207 209 205 215 213 209 204 195 198 187 216 202 206 226 229 227 228 226 219 212 249 262 265 230 254 240 250 242 230 242 255 258 252 242 231 246 266 273 253 265
206 210 200 205 207 206 205 207 209 208 206 207 212 209 189 190 191 205 223 236 222 228 220 223 216 208 270 225 209 204 196 219 241 259 264 251 244 241 273 271 268 268 262 260 269
203 210 200 204 204 204 204 209 202 207 207 208 207 208 211 207 186 204 225 223 215 206 200 221 228 219 226 269 277 259 250 238 244 243 232 223 239 262 277 287 281 274 258 262 263
199 206 199 203 202 201 203 205 205 207 207 209 209 209 208 211 204 202 222 213 209 214 221 232 221 188 252 233 224 189 214 260 253 243 241 255 257 278 279 263 267 264 263 257 260
195 201 199 202 204 203 205 203 205 207 209 211 212 209 206 206 209 211 221 211 211 213 217 230 236 225 210 256 245 245 239 243 255 272 266 254 255 269 264 280 291 272 256 256 261
196 198 195 203 201 201 201 205 206 208 207 210 210 209 211 203 197 203 229 213 224 225 230 234 241 241 241 236 243 248 252 257 253 249 256 264 262 250 247 256 271 268 264 261 256
200 202 193 201 201 202 204 206 208 209 206 206 209 209 209 204 204 189 219 218 227 231 236 239 239 246 243 257 249 251 250 236 238 239 245 241 234 251 263 268 278 277 265 269 273
Height
5863 5864 5866 5868 5869 5870 5872 5873 5874 5876 5878 5881 5882 5884 5887 5889 5891 5893 5895 5898 5898 5899 5899 5899 5900 5901 5903 5906 5908 5910 5914 5926 5926 5923 5922 5913 5912 5909 5906 5904 5903 5901 5899 5898 5896
5858 5860 5862 5863 5865 5866 5868 5869 5870 5872 5874 5876 5879 5880 5883 5885 5888 5890 5893 5894 5896 5898 5898 5898 5899 5900 5901 5905 5908 5911 5917 5924 5918 5917 5922 5916 5914 5909 5907 5904 5903 5902 5900 5898 5896
5854 5856 5857 5859 5860 5862 5863 5865 5866 5869 5870 5872 5874 5877 5879 5881 5884 5886 5889 5892 5894 5896 5897 5897 5898 5899 5900 5903 5907 5910 5913 5915 5914 5915 5916 5919 5914 5909 5906 5905 5904 5903 5901 5900 5898
5848 5850 5852 5853 5855 5857 5858 5860 5862 5864 5866 5868 5870 5873 5876 5877 5880 5882 5885 5888 5891 5893 5896 5897 5897 5898 5899 5901 5905 5908 5909 5911 5912 5913 5915 5917 5913 5909 5908 5907 5905 5904 5902 5901 5900
5841 5844 5846 5847 5849 5852 5853 5854 5856 5859 5861 5863 5865 5867 5871 5873 5875 5878 5881 5885 5888 5890 5893 5895 5896 5896 5898 5900 5902 5906 5908 5910 5911 5912 5912 5915 5912 5909 5907 5906 5905 5904 5903 5902 5902
5835 5837 5840 5842 5844 5845 5846 5848 5851 5853 5855 5857 5860 5862 5866 5866 5871 5873 5877 5881 5884 5887 5890 5893 5895 5896 5897 5898 5900 5905 5906 5909 5910 5910 5910 5912 5912 5908 5907 5906 5905 5904 5903 5903 5902
5829 5831 5834 5836 5838 5840 5842 5843 5845 5848 5850 5852 5854 5857 5860 5863 5865 5869 5873 5876 5880 5883 5886 5890 5892 5894 5895 5897 5899 5902 5905 5906 5907 5909 5909 5910 5911 5909 5907 5906 5905 5904 5903 5903 5901
5824 5826 5828 5830 5833 5834 5836 5838 5841 5843 5845 5847 5849 5852 5853 5858 5861 5864 5868 5872 5876 5880 5883 5886 5889 5892 5893 5895 5897 5899 5902 5905 5907 5907 5908 5908 5912 5906 5907 5905 5904 5903 5903 5902 5901
5817 5820 5823 5824 5826 5828 5831 5833 5836 5838 5840 5842 5844 5847 5849 5852 5856 5860 5863 5867 5871 5875 5879 5883 5885 5888 5890 5892 5894 5897 5900 5903 5912 5906 5909 5908 5910 5908 5904 5904 5902 5902 5902 5901 5901
5810 5813 5816 5818 5820 5822 5825 5828 5831 5833 5836 5837 5840 5843 5845 5848 5852 5854 5858 5861 5866 5870 5875 5879 5881 5884 5886 5888 5892 5896 5898 5905 5907 5904 5905 5907 5910 5904 5905 5902 5900 5900 5900 5900 5900
5801 5805 5809 5812 5815 5816 5820 5823 5827 5829 5831 5833 5836 5836 5840 5842 5845 5849 5853 5856 5861 5866 5871 5874 5877 5880 5882 5885 5888 5898 5900 5901 5907 5907 5900 5904 5906 5909 5902 5900 5898 5896 5898 5899 5898
5790 5796 5801 5806 5809 5812 5814 5817 5820 5824 5827 5828 5830 5832 5836 5838 5842 5844 5849 5852 5856 5860 5865 5870 5872 5876 5877 5879 5883 5885 5890 5896 5902 5902 5897 5901 5903 5905 5902 5898 5897 5896 5895 5896 5895
5780 5786 5792 5798 5803 5806 5808 5812 5815 5818 5822 5824 5826 5828 5832 5835 5837 5839 5843 5846 5851 5855 5860 5865 5870 5869 5873 5877 5880 5883 5886 5890 5896 5894 5893 5895 5899 5899 5900 5899 5897 5894 5894 5891 5891
5770 5776 5782 5789 5797 5799 5803 5806 5810 5813 5817 5819 5822 5824 5828 5830 5832 5835 5839 5844 5846 5851 5855 5859 5861 5863 5869 5872 5876 5878 5883 5883 5888 5891 5888 5890 5893 5895 5893 5893 5893 5893 5892 5891 5888
5759 5766 5773 5781 5788 5792 5797 5800 5804 5809 5814 5812 5817 5821 5824 5827 5828 5832 5835 5838 5841 5845 5851 5857 5855 5859 5864 5869 5869 5875 5875 5877 5880 5881 5884 5888 5888 5890 5893 5886 5888 5890 5889 5888 5886
5747 5755 5763 5772 5779 5785 5790 5794 5799 5806 5807 5807 5812 5816 5820 5822 5825 5826 5830 5834 5837 5840 5845 5846 5848 5854 5859 5861 5863 5868 5870 5873 5875 5878 5876 5881 5884 5887 5886 5887 5882 5882 5884 5883 5884
5735 5744 5753 5762 5770 5777 5783 5788 5794 5798 5799 5804 5808 5812 5815 5818 5820 5823 5826 5830 5833 5837 5841 5843 5844 5848 5852 5855 5859 5862 5866 5870 5872 5872 5872 5877 5876 5879 5881 5881 5879 5878 5878 5880 5881
5724 5734 5743 5752 5761 5769 5775 5782 5786 5793 5796 5796 5802 5808 5812 5814 5817 5819 5822 5825 5829 5832 5840 5843 5845 5842 5845 5851 5855 5857 5862 5866 5871 5873 5875 5875 5871 5873 5876 5873 5869 5870 5871 5870 5871
5713 5724 5734 5743 5752 5760 5767 5773 5783 5786 5787 5793 5799 5804 5808 5811 5815 5816 5819 5823 5825 5828 5834 5841 5842 5835 5838 5845 5849 5855 5855 5860 5860 5862 5866 5870 5871 5869 5868 5865 5862 5863 5865 5865 5863
5704 5713 5723 5734 5742 5751 5758 5767 5771 5773 5783 5789 5795 5801 5806 5808 5811 5813 5816 5819 5822 5823 5826 5833 5837 5832 5832 5839 5842 5846 5852 5853 5855 5857 5859 5864 5867 5868 5866 5862 5862 5864 5866 5863 5855
5694 5705 5713 5723 5733 5742 5751 5760 5765 5771 5776 5783 5788 5794 5803 5806 5808 5811 5815 5813 5816 5818 5821 5825 5830 5833 5830 5833 5839 5841 5843 5846 5849 5851 5854 5859 5864 5859 5854 5855 5856 5856 5859 5856 5846
5685 5697 5706 5716 5726 5735 5744 5751 5757 5766 5770 5775 5782 5787 5794 5802 5807 5812 5812 5810 5811 5814 5817 5820 5823 5828 5833 5832 5831 5833 5837 5840 5843 5848 5847 5849 5852 5853 5851 5850 5847 5847 5847 5843 5844
5678 5687 5699 5708 5718 5728 5737 5743 5752 5758 5765 5770 5776 5781 5788 5795 5804 5806 5802 5806 5807 5810 5815 5815 5819 5824 5828 5830 5828 5829 5832 5833 5833 5835 5839 5843 5848 5846 5842 5842 5843 5840 5836 5834 5835
5670 5677 5692 5701 5711 5717 5727 5738 5745 5753 5758 5764 5769 5777 5784 5789 5795 5800 5799 5802 5804 5807 5810 5812 5814 5819 5819 5822 5822 5824 5826 5828 5829 5829 5836 5841 5841 5840 5838 5832 5829 5831 5827 5828 5827
5660 5673 5685 5696 5705 5715 5723 5732 5739 5745 5753 5760 5766 5773 5780 5786 5791 5796 5794 5799 5802 5805 5807 5809 5810 5814 5816 5818 5818 5819 5821 5823 5826 5828 5829 5832 5833 5834 5831 5823 5821 5821 5821 5821 5819
5657 5668 5680 5688 5698 5708 5717 5724 5734 5741 5747 5755 5762 5768 5774 5781 5790 5794 5791 5796 5798 5801 5802 5805 5807 5808 5811 5813 5814 5813 5815 5816 5819 5821 5823 5824 5827 5814 5816 5817 5812 5815 5816 5813 5810
5653 5663 5676 5682 5695 5704 5711 5720 5727 5734 5743 5750 5757 5763 5769 5777 5779 5785 5788 5790 5791 5796 5797 5800 5802 5804 5805 5807 5806 5808 5808 5809 5809 5809 5810 5811 5809 5810 5812 5810 5807 5809 5805 5806 5809